C/2019 B3 ( PanSTARRS )

Japanese version
Home page
Updated on November 15, 2021

---------------------------------------------------------------------

* Profile

Discovery Date January 24, 2019
Magnitude 19.6 mag
Discoverer Pan-STARRS 1 telescope (Haleakala)

* Pictures

* Orbital Elements

Epoch 2021 Jan. 26.0 TT = JDT 2459240.5
T 2021 Jan. 20.03117 TT                                 Rudenko
q   6.8230026            (2000.0)            P               Q
z  -0.0003640      Peri.  263.91212     -0.11687378     +0.99282800
 +/-0.0000022      Node   358.42821     +0.00237961     -0.02505492
e   1.0024837      Incl.   66.53616     -0.99314393     -0.11689664
From 126 observations 2019 Jan. 24-2021 Sept. 12, mean residual 0".6.

* Magnitudes Graph

        m1 = 5.5 + 5 log d + 10.0 log r

---------------------------------------------------------------------

The orbital elements are published on M.P.E.C. 2021-S45.
The magnitudes graphs are made with Comet for Windows.

---------------------------------------------------------------------

Copyright(C) Seiichi Yoshida (comet@aerith.net). All rights reserved.